﻿_id,Date,SR,Rain
1,2013-02-01T00:00:00,0.998910705,0
2,2013-02-02T00:00:00,,0.33
3,2013-02-03T00:00:00,0.999417165,0
4,2013-02-04T00:00:00,0.999923625,0
5,2013-02-05T00:00:00,1.00049745,0
6,2013-02-06T00:00:00,1.000417018,0
7,2013-02-07T00:00:00,1.000417018,0.33
8,2013-02-08T00:00:00,,6.2
9,2013-02-09T00:00:00,1.000417018,0
10,2013-02-10T00:00:00,1.000417018,0
11,2013-02-11T00:00:00,1.000417018,0
12,2013-02-12T00:00:00,1.000155906,0
13,2013-02-13T00:00:00,,0
14,2013-02-14T00:00:00,1.000155906,0
15,2013-02-15T00:00:00,1.00007521,0
16,2013-02-16T00:00:00,1.000037326,0
17,2013-02-17T00:00:00,1.000005744,0
18,2013-02-18T00:00:00,1.000005744,0
19,2013-02-19T00:00:00,1.000005744,4.3
20,2013-02-20T00:00:00,0.999870226,0.69
21,2013-02-21T00:00:00,0.998384576,0
22,2013-02-22T00:00:00,0.998384576,0
23,2013-02-23T00:00:00,0.997927293,0
24,2013-02-24T00:00:00,0.997927293,0
25,2013-02-25T00:00:00,0.995765703,0
26,2013-02-26T00:00:00,0.988124912,0
27,2013-02-27T00:00:00,0.988034112,0
28,2013-02-28T00:00:00,0.987933347,0
29,2013-03-01T00:00:00,0.987921276,0
30,2013-03-02T00:00:00,0.987541036,0
31,2013-03-03T00:00:00,0.987541036,0
32,2013-03-04T00:00:00,0.987541036,0
33,2013-03-05T00:00:00,0.987541036,0
34,2013-03-06T00:00:00,0.987541036,0.61
35,2013-03-07T00:00:00,,14.42
36,2013-03-08T00:00:00,0.99067759,3.56
37,2013-03-09T00:00:00,0.997738535,0
38,2013-03-10T00:00:00,0.997613479,0
39,2013-03-11T00:00:00,0.996640072,0
40,2013-03-12T00:00:00,,0
41,2013-03-13T00:00:00,0.995666665,0
42,2013-03-14T00:00:00,0.995752866,0
43,2013-03-15T00:00:00,0.995666665,0
44,2013-03-16T00:00:00,0.995666665,0
45,2013-03-17T00:00:00,0.995061296,0
46,2013-03-18T00:00:00,0.994774271,0
47,2013-03-19T00:00:00,0.994474359,0
48,2013-03-20T00:00:00,0.992654428,0
49,2013-03-21T00:00:00,0.990135575,0
50,2013-03-22T00:00:00,0.989477941,0
51,2013-03-23T00:00:00,0.987885132,0
52,2013-03-24T00:00:00,0.993564394,0
53,2013-03-25T00:00:00,0.978731139,0
54,2013-03-26T00:00:00,0.975869648,0
55,2013-03-27T00:00:00,0.979596908,0
56,2013-03-28T00:00:00,0.97764636,0
57,2013-03-29T00:00:00,0.979492618,0
58,2013-03-30T00:00:00,0.979492618,0
59,2013-03-31T00:00:00,,2.17
60,2013-04-01T00:00:00,0.979492618,0
61,2013-04-02T00:00:00,0.978664965,0
62,2013-04-03T00:00:00,0.979245237,0
63,2013-04-04T00:00:00,0.979825509,0
64,2013-04-05T00:00:00,0.979363922,0
65,2013-04-06T00:00:00,0.980520681,0
66,2013-04-07T00:00:00,0.981338012,0
67,2013-04-08T00:00:00,0.988001626,0
68,2013-04-09T00:00:00,0.988001626,0
69,2013-04-10T00:00:00,0.988001626,0
70,2013-04-11T00:00:00,0.988024453,0
71,2013-04-12T00:00:00,0.988104534,0
72,2013-04-13T00:00:00,0.9881655,0
73,2013-04-14T00:00:00,0.9881655,0
74,2013-04-15T00:00:00,0.989187047,0
75,2013-04-16T00:00:00,0.991494692,0
76,2013-04-17T00:00:00,0.991494692,0
77,2013-04-18T00:00:00,0.991494692,0
78,2013-04-19T00:00:00,0.991494692,0
79,2013-04-20T00:00:00,0.991494692,0
80,2013-04-21T00:00:00,0.991494692,0
81,2013-04-22T00:00:00,0.988106484,0
82,2013-04-23T00:00:00,0.987459721,0
83,2013-04-24T00:00:00,0.987446138,0
84,2013-04-25T00:00:00,0.987005336,0
85,2013-04-26T00:00:00,0.986871913,0
86,2013-04-27T00:00:00,0.985742152,0
87,2013-04-28T00:00:00,0.98745293,0
88,2013-04-29T00:00:00,0.981632271,0
89,2013-04-30T00:00:00,0.980321439,0
90,2013-05-01T00:00:00,0.984308085,0
91,2013-05-02T00:00:00,0.984696785,0
92,2013-05-03T00:00:00,0.984308085,0
93,2013-05-04T00:00:00,0.984308085,0
94,2013-05-05T00:00:00,,2.41
95,2013-05-06T00:00:00,0.984755832,3.34
96,2013-05-07T00:00:00,0.987603765,0.12
97,2013-05-08T00:00:00,0.994653551,0
98,2013-05-09T00:00:00,0.989617465,0
99,2013-05-10T00:00:00,0.989953583,0
100,2013-05-11T00:00:00,0.989568437,0
101,2013-05-12T00:00:00,0.98992907,0
102,2013-05-13T00:00:00,0.989568437,0
103,2013-05-14T00:00:00,0.987973265,0
104,2013-05-15T00:00:00,0.987845948,0
105,2013-05-16T00:00:00,0.987706598,0
106,2013-05-17T00:00:00,0.987603765,0
107,2013-05-18T00:00:00,0.986540149,0
108,2013-05-19T00:00:00,0.986379795,0
109,2013-05-20T00:00:00,0.983860463,0
110,2013-05-21T00:00:00,0.983860463,0
111,2013-05-22T00:00:00,0.983791564,0
112,2013-05-23T00:00:00,0.983716424,0
113,2013-05-24T00:00:00,0.983445688,0
114,2013-05-25T00:00:00,0.983445688,0
115,2013-05-26T00:00:00,0.983716424,0
116,2013-05-27T00:00:00,0.983791564,0
117,2013-05-28T00:00:00,0.983791564,0
118,2013-05-29T00:00:00,0.983860463,0
119,2013-05-30T00:00:00,0.984243735,0
120,2013-05-31T00:00:00,0.984354659,0
121,2013-06-01T00:00:00,0.984354659,0
122,2013-06-02T00:00:00,0.984486295,0
123,2013-06-03T00:00:00,0.984960311,0
124,2013-06-04T00:00:00,0.987934754,0
125,2013-06-05T00:00:00,0.987934754,0
126,2013-06-06T00:00:00,0.987934754,0
127,2013-06-07T00:00:00,0.987934754,0
128,2013-06-08T00:00:00,0.987934754,0
129,2013-06-09T00:00:00,0.987934754,0
130,2013-06-10T00:00:00,0.986157803,0
131,2013-06-11T00:00:00,0.98531107,0
132,2013-06-12T00:00:00,0.985207631,0
133,2013-06-13T00:00:00,0.984991666,0
134,2013-06-14T00:00:00,0.984991666,0
135,2013-06-15T00:00:00,0.984991666,0
136,2013-06-16T00:00:00,0.985207631,0
137,2013-06-17T00:00:00,0.985207631,0
138,2013-06-18T00:00:00,0.985287911,0
139,2013-06-19T00:00:00,0.985207631,0
140,2013-06-20T00:00:00,0.985207631,0
141,2013-06-21T00:00:00,0.985207631,0
142,2013-06-22T00:00:00,0.982010342,0
143,2013-06-23T00:00:00,0.982010342,0
144,2013-06-24T00:00:00,0.981062487,0
145,2013-06-25T00:00:00,0.980527555,0
146,2013-06-26T00:00:00,0.980527555,0
147,2013-06-27T00:00:00,0.980527555,0
148,2013-06-28T00:00:00,0.980527555,0
149,2013-06-29T00:00:00,0.980527555,0
150,2013-06-30T00:00:00,0.980527555,0
151,2013-07-01T00:00:00,,0
152,2013-07-02T00:00:00,,0
153,2013-07-03T00:00:00,,0
154,2013-07-04T00:00:00,,0
155,2013-07-05T00:00:00,,0
156,2013-07-06T00:00:00,,0
157,2013-07-07T00:00:00,,0
158,2013-07-08T00:00:00,,0
159,2013-07-09T00:00:00,,0
160,2013-07-10T00:00:00,,0
161,2013-07-11T00:00:00,,0
162,2013-07-12T00:00:00,,0
163,2013-07-13T00:00:00,,0
164,2013-07-14T00:00:00,,0
165,2013-07-15T00:00:00,,0
166,2013-07-16T00:00:00,,0
167,2013-07-17T00:00:00,,0
168,2013-07-18T00:00:00,,0
169,2013-07-19T00:00:00,,0
170,2013-07-20T00:00:00,,0
171,2013-07-21T00:00:00,,2.78
172,2013-07-22T00:00:00,,0
173,2013-07-23T00:00:00,,0
174,2013-07-24T00:00:00,,0
175,2013-07-25T00:00:00,,0
176,2013-07-26T00:00:00,,0
177,2013-07-27T00:00:00,,0
178,2013-07-28T00:00:00,,0
179,2013-07-29T00:00:00,,0
180,2013-07-30T00:00:00,,0
181,2013-07-31T00:00:00,,0
182,2013-08-01T00:00:00,,0
183,2013-08-02T00:00:00,,0
184,2013-08-03T00:00:00,,0
185,2013-08-04T00:00:00,,0
186,2013-08-05T00:00:00,,0
187,2013-08-06T00:00:00,,0
188,2013-08-07T00:00:00,,0
189,2013-08-08T00:00:00,,0
190,2013-08-09T00:00:00,,0
191,2013-08-10T00:00:00,,0
192,2013-08-11T00:00:00,,0
193,2013-08-12T00:00:00,,0
194,2013-08-13T00:00:00,,0
195,2013-08-14T00:00:00,,0
196,2013-08-15T00:00:00,,0
197,2013-08-16T00:00:00,,0
198,2013-08-17T00:00:00,,0
199,2013-08-18T00:00:00,,0
200,2013-08-19T00:00:00,,0
201,2013-08-20T00:00:00,,0
202,2013-08-21T00:00:00,,0
203,2013-08-22T00:00:00,,0
204,2013-08-23T00:00:00,,0
205,2013-08-24T00:00:00,,0
206,2013-08-25T00:00:00,,0
207,2013-08-26T00:00:00,,8.89
208,2013-08-27T00:00:00,,0
209,2013-08-28T00:00:00,,0
210,2013-08-29T00:00:00,,0
211,2013-08-30T00:00:00,,0
212,2013-08-31T00:00:00,,0
213,2013-09-01T00:00:00,,0
214,2013-09-02T00:00:00,,0
215,2013-09-03T00:00:00,,0
216,2013-09-04T00:00:00,,0
217,2013-09-05T00:00:00,,0
218,2013-09-06T00:00:00,,0
219,2013-09-07T00:00:00,,0
220,2013-09-08T00:00:00,,0
221,2013-09-09T00:00:00,,0
222,2013-09-10T00:00:00,,0
223,2013-09-11T00:00:00,,0
224,2013-09-12T00:00:00,,0
225,2013-09-13T00:00:00,,0
226,2013-09-14T00:00:00,,0
227,2013-09-15T00:00:00,,0
228,2013-09-16T00:00:00,,0
229,2013-09-17T00:00:00,,0
230,2013-09-18T00:00:00,,0
231,2013-09-19T00:00:00,,0
232,2013-09-20T00:00:00,,0
233,2013-09-21T00:00:00,,0
234,2013-09-22T00:00:00,,0
235,2013-09-23T00:00:00,,0
236,2013-09-24T00:00:00,,0
237,2013-09-25T00:00:00,,0
238,2013-09-26T00:00:00,,0
239,2013-09-27T00:00:00,,0
240,2013-09-28T00:00:00,,0
241,2013-09-29T00:00:00,,0
242,2013-09-30T00:00:00,,0
243,2013-10-01T00:00:00,0.990340612,0
244,2013-10-02T00:00:00,,0
245,2013-10-03T00:00:00,0.989552492,0
246,2013-10-04T00:00:00,0.990340612,0
247,2013-10-05T00:00:00,0.991992846,0
248,2013-10-06T00:00:00,0.992098702,0
249,2013-10-07T00:00:00,0.991128732,0
250,2013-10-08T00:00:00,0.991992846,0
251,2013-10-09T00:00:00,0.991992846,2.69
252,2013-10-10T00:00:00,0.994585291,0
253,2013-10-11T00:00:00,0.994382018,0
254,2013-10-12T00:00:00,0.994246852,0
255,2013-10-13T00:00:00,0.994111687,0
256,2013-10-14T00:00:00,0.991270096,0
257,2013-10-15T00:00:00,0.989098403,0
258,2013-10-16T00:00:00,0.989085248,0
259,2013-10-17T00:00:00,0.988674361,0
260,2013-10-18T00:00:00,0.988591929,0
261,2013-10-19T00:00:00,0.988428506,0
262,2013-10-20T00:00:00,0.988428506,0
263,2013-10-21T00:00:00,0.98662083,0
264,2013-10-22T00:00:00,0.984156411,0
265,2013-10-23T00:00:00,0.984463867,0
266,2013-10-24T00:00:00,0.984871455,0
267,2013-10-25T00:00:00,0.985821696,0
268,2013-10-26T00:00:00,0.986473691,0
269,2013-10-27T00:00:00,0.986473691,0
270,2013-10-28T00:00:00,,1.21
271,2013-10-29T00:00:00,0.99542722,0
272,2013-10-30T00:00:00,1.001082161,0
273,2013-10-31T00:00:00,1.001188001,0
274,2013-11-01T00:00:00,1.001598285,0
275,2013-11-02T00:00:00,1.001507199,0
276,2013-11-03T00:00:00,0.99542722,0
277,2013-11-04T00:00:00,0.991167637,0
278,2013-11-05T00:00:00,0.990970104,0
279,2013-11-06T00:00:00,0.990839481,0
280,2013-11-07T00:00:00,0.990683669,0
281,2013-11-08T00:00:00,0.990140954,0
282,2013-11-09T00:00:00,0.989558764,0
283,2013-11-10T00:00:00,0.989273643,0
284,2013-11-11T00:00:00,0.988589731,0
285,2013-11-12T00:00:00,,0
286,2013-11-13T00:00:00,0.984943559,0
287,2013-11-14T00:00:00,0.985720954,0
288,2013-11-15T00:00:00,0.987497298,0
289,2013-11-16T00:00:00,0.977388032,0
290,2013-11-17T00:00:00,0.99011088,0
291,2013-11-18T00:00:00,0.984447084,0
292,2013-11-19T00:00:00,0.984447084,0
293,2013-11-20T00:00:00,0.984447084,7.59
294,2013-11-21T00:00:00,,9.4
295,2013-11-22T00:00:00,,3.33
296,2013-11-23T00:00:00,,0
297,2013-11-24T00:00:00,0.997142854,0
298,2013-11-25T00:00:00,1.000113604,0
299,2013-11-26T00:00:00,1.000361018,0
300,2013-11-27T00:00:00,1.000361018,0
301,2013-11-28T00:00:00,,0
302,2013-11-29T00:00:00,,0
303,2013-11-30T00:00:00,1.000361018,0
304,2013-12-01T00:00:00,1.000801434,0
305,2013-12-02T00:00:00,1.000859054,0
306,2013-12-03T00:00:00,1.001075312,0.04
307,2013-12-04T00:00:00,1.001075312,0
308,2013-12-05T00:00:00,1.001075312,0
309,2013-12-06T00:00:00,1.001075312,0
310,2013-12-07T00:00:00,1.001075312,1.84
311,2013-12-08T00:00:00,1.001075312,0
312,2013-12-09T00:00:00,1.00046804,0
313,2013-12-10T00:00:00,1.000246743,0
314,2013-12-11T00:00:00,1.000200783,0
315,2013-12-12T00:00:00,1.00016948,0
316,2013-12-13T00:00:00,0.999899358,0
317,2013-12-14T00:00:00,0.999743092,0
318,2013-12-15T00:00:00,0.999743092,0
319,2013-12-16T00:00:00,0.999743092,0
320,2013-12-17T00:00:00,0.999743092,0
321,2013-12-18T00:00:00,,0
322,2013-12-19T00:00:00,0.999612212,3.12
323,2013-12-20T00:00:00,1.001866964,0
324,2013-12-21T00:00:00,1.002401694,0
325,2013-12-22T00:00:00,1.002188653,0
326,2013-12-23T00:00:00,0.999886916,0
327,2013-12-24T00:00:00,0.99980892,0
328,2013-12-25T00:00:00,0.999886916,0
329,2013-12-26T00:00:00,0.999730925,0
330,2013-12-27T00:00:00,0.999707219,0
331,2013-12-28T00:00:00,0.999586407,0
332,2013-12-29T00:00:00,0.999560584,0
333,2013-12-30T00:00:00,0.999542832,0
334,2013-12-31T00:00:00,0.999433702,0
335,2014-01-01T00:00:00,0.998343724,0
336,2014-01-02T00:00:00,0.996002189,0
337,2014-01-03T00:00:00,0.996002189,0
338,2014-01-04T00:00:00,0.995927098,0
339,2014-01-05T00:00:00,0.995927098,0
340,2014-01-06T00:00:00,0.995927098,0
341,2014-01-07T00:00:00,0.995927098,0
342,2014-01-08T00:00:00,0.995927098,0
343,2014-01-09T00:00:00,0.995927098,0
344,2014-01-10T00:00:00,0.99360501,0
345,2014-01-11T00:00:00,0.99119667,0
346,2014-01-12T00:00:00,,0
347,2014-01-13T00:00:00,0.990926094,0
348,2014-01-14T00:00:00,0.990659434,0
349,2014-01-15T00:00:00,0.990207795,0
350,2014-01-16T00:00:00,0.990136932,0
351,2014-01-17T00:00:00,0.990114723,0
352,2014-01-18T00:00:00,0.990114723,0
353,2014-01-19T00:00:00,0.989580249,0
354,2014-01-20T00:00:00,0.989580249,0
355,2014-01-21T00:00:00,0.988618616,0
356,2014-01-22T00:00:00,0.988618616,0
357,2014-01-23T00:00:00,0.987459974,0
358,2014-01-24T00:00:00,0.990292778,0
359,2014-01-25T00:00:00,0.988919168,0
360,2014-01-26T00:00:00,0.987553682,0
361,2014-01-27T00:00:00,0.991346233,0
362,2014-01-28T00:00:00,0.990292778,0
363,2014-01-29T00:00:00,0.991167399,0
364,2014-01-30T00:00:00,,3.84
365,2014-01-31T00:00:00,0.996828631,0
366,2014-02-01T00:00:00,0.996912622,0
367,2014-02-02T00:00:00,,0
368,2014-02-03T00:00:00,0.997592668,0
369,2014-02-04T00:00:00,0.997659318,0
370,2014-02-05T00:00:00,0.997659318,0
371,2014-02-06T00:00:00,0.997659318,2.13
372,2014-02-07T00:00:00,0.997260566,0
373,2014-02-08T00:00:00,1.001241196,0
374,2014-02-09T00:00:00,0.999537636,0
375,2014-02-10T00:00:00,0.995505708,0
376,2014-02-11T00:00:00,0.9954919,0
377,2014-02-12T00:00:00,0.995505708,0
378,2014-02-13T00:00:00,0.995478091,0
379,2014-02-14T00:00:00,0.99516607,0
380,2014-02-15T00:00:00,0.993199201,0
381,2014-02-16T00:00:00,0.991876452,0
382,2014-02-17T00:00:00,0.99171174,0
383,2014-02-18T00:00:00,0.990916103,0
384,2014-02-19T00:00:00,0.990158381,0
385,2014-02-20T00:00:00,0.990862416,0
386,2014-02-21T00:00:00,0.989281901,0
387,2014-02-22T00:00:00,0.989712839,0
388,2014-02-23T00:00:00,0.990697441,0
389,2014-02-24T00:00:00,0.991876452,0
390,2014-02-25T00:00:00,0.992640171,0
391,2014-02-26T00:00:00,0.992640171,10.52
392,2014-02-27T00:00:00,0.992640171,34.28
393,2014-02-28T00:00:00,,49.64
394,2014-03-01T00:00:00,,11.35
395,2014-03-02T00:00:00,,0
396,2014-03-03T00:00:00,0.992143692,0
397,2014-03-04T00:00:00,0.991208127,0
398,2014-03-05T00:00:00,0.990873369,0
399,2014-03-06T00:00:00,0.990774347,0
400,2014-03-07T00:00:00,0.990774347,0
401,2014-03-08T00:00:00,0.990675325,0
402,2014-03-09T00:00:00,0.990272563,0
403,2014-03-10T00:00:00,0.982948025,0
404,2014-03-11T00:00:00,0.982432237,0
405,2014-03-12T00:00:00,0.982326675,0
406,2014-03-13T00:00:00,0.982326675,0
407,2014-03-14T00:00:00,0.982326675,0
408,2014-03-15T00:00:00,0.982326675,0
409,2014-03-16T00:00:00,0.982432237,0
410,2014-03-17T00:00:00,0.982948025,0
411,2014-03-18T00:00:00,0.985171385,0
412,2014-03-19T00:00:00,0.985950186,0
413,2014-03-20T00:00:00,0.98553834,0
414,2014-03-21T00:00:00,0.985376144,0
415,2014-03-22T00:00:00,0.985517835,0
416,2014-03-23T00:00:00,0.985171385,0
417,2014-03-24T00:00:00,0.978668048,0
418,2014-03-25T00:00:00,0.978668048,0
419,2014-03-26T00:00:00,0.978668048,2.99
420,2014-03-27T00:00:00,0.978668048,0
421,2014-03-28T00:00:00,0.978668048,0
422,2014-03-29T00:00:00,0.978668048,1.79
423,2014-03-30T00:00:00,0.985646249,0.39
424,2014-03-31T00:00:00,0.985646249,5.51
425,2014-04-01T00:00:00,0.987526966,3.62
426,2014-04-02T00:00:00,,0
427,2014-04-03T00:00:00,0.990075851,0
428,2014-04-04T00:00:00,0.989643954,0
429,2014-04-05T00:00:00,0.989341589,0
430,2014-04-06T00:00:00,0.989276823,0
431,2014-04-07T00:00:00,0.986003006,0
432,2014-04-08T00:00:00,0.986167141,0
433,2014-04-09T00:00:00,0.985838872,0
434,2014-04-10T00:00:00,0.985086494,0
435,2014-04-11T00:00:00,0.984915881,0
436,2014-04-12T00:00:00,0.98366033,0
437,2014-04-13T00:00:00,0.983368774,0
438,2014-04-14T00:00:00,0.983332317,0
439,2014-04-15T00:00:00,0.983332317,0
440,2014-04-16T00:00:00,0.983234926,0
441,2014-04-17T00:00:00,0.983196438,0
442,2014-04-18T00:00:00,0.983030395,0
443,2014-04-19T00:00:00,0.983095845,0
444,2014-04-20T00:00:00,0.982980099,0
445,2014-04-21T00:00:00,0.980969971,0
446,2014-04-22T00:00:00,0.980564974,0
447,2014-04-23T00:00:00,0.982964088,0
448,2014-04-24T00:00:00,0.982864352,0
449,2014-04-25T00:00:00,0.982797546,4.89
450,2014-04-26T00:00:00,0.981077964,0.51
451,2014-04-27T00:00:00,0.987200547,0
452,2014-04-28T00:00:00,0.97641315,0
453,2014-04-29T00:00:00,0.977799552,0
454,2014-04-30T00:00:00,0.980295594,0
455,2014-05-01T00:00:00,0.980025095,0
456,2014-05-02T00:00:00,0.979039251,0
457,2014-05-03T00:00:00,0.978634663,0
458,2014-05-04T00:00:00,0.978634663,0
459,2014-05-05T00:00:00,0.978634663,0
460,2014-05-06T00:00:00,0.978634663,0
461,2014-05-07T00:00:00,0.978276013,0
462,2014-05-08T00:00:00,0.978040873,0
463,2014-05-09T00:00:00,0.977004905,0
464,2014-05-10T00:00:00,0.975696839,0
465,2014-05-11T00:00:00,0.975696839,0
466,2014-05-12T00:00:00,0.974578827,0
467,2014-05-13T00:00:00,0.973053739,0
468,2014-05-14T00:00:00,0.973175254,0
469,2014-05-15T00:00:00,0.973550181,0
470,2014-05-16T00:00:00,0.973968071,0
471,2014-05-17T00:00:00,0.974578827,0
472,2014-05-18T00:00:00,0.973175254,0
473,2014-05-19T00:00:00,0.973925108,0
474,2014-05-20T00:00:00,0.973968071,1.17
475,2014-05-21T00:00:00,0.974578827,0
476,2014-05-22T00:00:00,,1.53
477,2014-05-23T00:00:00,0.98603581,0
478,2014-05-24T00:00:00,0.985938039,0
479,2014-05-25T00:00:00,0.98565651,0
480,2014-05-26T00:00:00,0.985258146,0
481,2014-05-27T00:00:00,0.983738347,0
482,2014-05-28T00:00:00,0.982218547,0
483,2014-05-29T00:00:00,0.981612097,0
484,2014-05-30T00:00:00,0.981156457,0
485,2014-05-31T00:00:00,0.979202969,0
486,2014-06-01T00:00:00,0.978943343,0
487,2014-06-02T00:00:00,0.975992175,0
488,2014-06-03T00:00:00,0.975957843,0
489,2014-06-04T00:00:00,0.975911889,0
490,2014-06-05T00:00:00,0.975811197,0
491,2014-06-06T00:00:00,0.975811197,0
492,2014-06-07T00:00:00,0.975911889,0
493,2014-06-08T00:00:00,0.975911889,0
494,2014-06-09T00:00:00,0.975948257,0
495,2014-06-10T00:00:00,0.975992175,0
496,2014-06-11T00:00:00,0.97550094,0
497,2014-06-12T00:00:00,0.97767624,0
498,2014-06-13T00:00:00,0.978305549,0
499,2014-06-14T00:00:00,0.978409103,0
500,2014-06-15T00:00:00,0.978653625,0
501,2014-06-16T00:00:00,0.978653625,0
502,2014-06-17T00:00:00,0.978934858,0
503,2014-06-18T00:00:00,0.990811059,0
504,2014-06-19T00:00:00,0.992815425,0
505,2014-06-20T00:00:00,0.992567531,0
506,2014-06-21T00:00:00,0.99262981,0
507,2014-06-22T00:00:00,0.990914715,0
508,2014-06-23T00:00:00,0.990862887,0
509,2014-06-24T00:00:00,0.987763466,0
510,2014-06-25T00:00:00,0.984043041,0
511,2014-06-26T00:00:00,0.98349663,0
512,2014-06-27T00:00:00,0.982888409,0
513,2014-06-28T00:00:00,0.980717628,0
514,2014-06-29T00:00:00,0.97927908,0
515,2014-06-30T00:00:00,0.971477707,0
516,2014-07-01T00:00:00,0.971477707,0
517,2014-07-02T00:00:00,0.971337009,0
518,2014-07-03T00:00:00,0.971211878,0
519,2014-07-04T00:00:00,0.970871302,0
520,2014-07-05T00:00:00,0.970871302,0
521,2014-07-06T00:00:00,0.970962949,0
522,2014-07-07T00:00:00,0.971211878,0
523,2014-07-08T00:00:00,0.97125807,0
524,2014-07-09T00:00:00,0.97125807,0
525,2014-07-10T00:00:00,0.970962949,0
526,2014-07-11T00:00:00,0.970261952,0
527,2014-07-12T00:00:00,0.968828314,0
528,2014-07-13T00:00:00,0.968828314,0
529,2014-07-14T00:00:00,0.968828314,0
530,2014-07-15T00:00:00,0.968828314,0
531,2014-07-16T00:00:00,0.968828314,0
532,2014-07-17T00:00:00,0.968828314,0
533,2014-07-18T00:00:00,0.968828314,0
534,2014-07-19T00:00:00,,0
535,2014-07-20T00:00:00,0.979976639,0
536,2014-07-21T00:00:00,0.981154008,0
537,2014-07-22T00:00:00,0.981154008,0
538,2014-07-23T00:00:00,0.981154008,0
539,2014-07-24T00:00:00,0.981154008,0
540,2014-07-25T00:00:00,0.981154008,0
541,2014-07-26T00:00:00,0.981592344,0
542,2014-07-27T00:00:00,0.979955413,0
543,2014-07-28T00:00:00,0.976923848,0
544,2014-07-29T00:00:00,0.976289708,0
545,2014-07-30T00:00:00,0.978104852,0
546,2014-07-31T00:00:00,0.978104852,0
547,2014-08-01T00:00:00,0.978104852,0
548,2014-08-02T00:00:00,0.978104852,0.47
549,2014-08-03T00:00:00,,1.03
550,2014-08-04T00:00:00,0.984756278,0
551,2014-08-05T00:00:00,0.983746635,0
552,2014-08-06T00:00:00,0.984647396,0
553,2014-08-07T00:00:00,0.985236646,0
554,2014-08-08T00:00:00,0.985140118,0
555,2014-08-09T00:00:00,0.984647621,0
556,2014-08-10T00:00:00,0.983746635,0
557,2014-08-11T00:00:00,0.981092979,0
558,2014-08-12T00:00:00,0.981092979,0
559,2014-08-13T00:00:00,0.980302744,0
560,2014-08-14T00:00:00,0.980025857,0
561,2014-08-15T00:00:00,0.979732887,0
562,2014-08-16T00:00:00,0.979732887,0
563,2014-08-17T00:00:00,0.980025857,0
564,2014-08-18T00:00:00,0.980025857,0
565,2014-08-19T00:00:00,0.980076266,0
566,2014-08-20T00:00:00,,0
567,2014-08-21T00:00:00,0.979892162,0
568,2014-08-22T00:00:00,0.978675848,0
569,2014-08-23T00:00:00,0.978675848,0
570,2014-08-24T00:00:00,0.978675848,0
571,2014-08-25T00:00:00,0.97901764,0
572,2014-08-26T00:00:00,0.978009842,0
573,2014-08-27T00:00:00,0.978232325,0
574,2014-08-28T00:00:00,0.978624982,0
575,2014-08-29T00:00:00,0.978610784,0
576,2014-08-30T00:00:00,0.97932586,0
577,2014-08-31T00:00:00,0.979461825,0
578,2014-09-01T00:00:00,0.980314048,0
579,2014-09-02T00:00:00,0.986319187,0
580,2014-09-03T00:00:00,0.993278921,0
581,2014-09-04T00:00:00,0.993278921,0
582,2014-09-05T00:00:00,0.993278921,0
583,2014-09-06T00:00:00,0.993278921,0
584,2014-09-07T00:00:00,0.993278921,0.53
585,2014-09-08T00:00:00,0.993572905,0
586,2014-09-09T00:00:00,0.989387983,0
587,2014-09-10T00:00:00,0.989348402,0
588,2014-09-11T00:00:00,0.989780248,0
589,2014-09-12T00:00:00,0.990002575,0
590,2014-09-13T00:00:00,0.98930882,0
591,2014-09-14T00:00:00,0.988883606,0
592,2014-09-15T00:00:00,0.987760855,0
593,2014-09-16T00:00:00,0.987748221,0
594,2014-09-17T00:00:00,0.987355893,0
595,2014-09-18T00:00:00,0.98731154,0
596,2014-09-19T00:00:00,0.987050506,0
597,2014-09-20T00:00:00,0.986207703,0
598,2014-09-21T00:00:00,0.985881855,0
599,2014-09-22T00:00:00,0.983748419,0
600,2014-09-23T00:00:00,0.983062585,0
601,2014-09-24T00:00:00,0.981241036,0
602,2014-09-25T00:00:00,0.980395976,0
603,2014-09-26T00:00:00,0.979784579,0
604,2014-09-27T00:00:00,0.978701116,0
605,2014-09-28T00:00:00,0.977828055,0
606,2014-09-29T00:00:00,0.974748105,0
607,2014-09-30T00:00:00,0.974748105,0
608,2014-10-01T00:00:00,0.974675862,0
609,2014-10-02T00:00:00,0.974672988,0
610,2014-10-03T00:00:00,0.974036523,0
611,2014-10-04T00:00:00,0.974036523,0
612,2014-10-05T00:00:00,0.974036523,0
613,2014-10-06T00:00:00,0.974672988,0
614,2014-10-07T00:00:00,0.974675862,0
615,2014-10-08T00:00:00,0.974672988,0
616,2014-10-09T00:00:00,0.972151645,0
617,2014-10-10T00:00:00,0.971995642,0
618,2014-10-11T00:00:00,0.971995642,0
619,2014-10-12T00:00:00,0.972151645,0
620,2014-10-13T00:00:00,0.972504762,0
621,2014-10-14T00:00:00,0.973265164,0
622,2014-10-15T00:00:00,0.972504762,0
623,2014-10-16T00:00:00,0.972504762,0
624,2014-10-17T00:00:00,0.971995642,0
625,2014-10-18T00:00:00,0.968695221,0
626,2014-10-19T00:00:00,0.968695221,0
627,2014-10-20T00:00:00,0.963796242,0
628,2014-10-21T00:00:00,0.963796242,0
629,2014-10-22T00:00:00,0.963657893,0
630,2014-10-23T00:00:00,0.963641903,0
631,2014-10-24T00:00:00,0.963649898,0
632,2014-10-25T00:00:00,0.963796242,0
633,2014-10-26T00:00:00,0.964250921,0
634,2014-10-27T00:00:00,0.951911851,0
635,2014-10-28T00:00:00,0.951606535,0
636,2014-10-29T00:00:00,0.963641903,0
637,2014-10-30T00:00:00,,0
638,2014-10-31T00:00:00,0.964705599,12.01
639,2014-11-01T00:00:00,0.996340352,4.17
640,2014-11-02T00:00:00,0.996598325,0
641,2014-11-03T00:00:00,0.996340352,0
642,2014-11-04T00:00:00,0.996457442,0
643,2014-11-05T00:00:00,0.996505146,0
644,2014-11-06T00:00:00,0.996450162,0
645,2014-11-07T00:00:00,0.996395178,0
646,2014-11-08T00:00:00,0.996395178,0
647,2014-11-09T00:00:00,0.996468377,0
648,2014-11-10T00:00:00,0.996468377,0
649,2014-11-11T00:00:00,0.996483811,0
650,2014-11-12T00:00:00,0.996483811,0
651,2014-11-13T00:00:00,0.997678104,0
652,2014-11-14T00:00:00,0.997678104,0
653,2014-11-15T00:00:00,0.997740705,0
654,2014-11-16T00:00:00,0.998311993,0
655,2014-11-17T00:00:00,0.99818418,0
656,2014-11-18T00:00:00,,0
657,2014-11-19T00:00:00,0.99088944,0
658,2014-11-20T00:00:00,0.992061144,0
659,2014-11-21T00:00:00,0.99190164,0
660,2014-11-22T00:00:00,0.991835795,0.26
661,2014-11-23T00:00:00,0.99088944,0
662,2014-11-24T00:00:00,0.986522877,0
663,2014-11-25T00:00:00,0.985695694,0
664,2014-11-26T00:00:00,0.985116881,0
665,2014-11-27T00:00:00,0.985080834,0
666,2014-11-28T00:00:00,0.985077981,0